Regional Weather Roundup
Issued by NWS Sioux Falls, SD

Home | Current Version | Previous Version | Graphics & Text | Print | Product List | Glossary On
Versions: 1 2 3 4 5 6 7 8 9 10 11 12 13 14 15 16 17 18 19 20 21 22 23 24 25 26 27 28 29 30 31 32 33 34 35 36 37 38 39 40 41 42 43 44 45 46 47 48 49 50
000
ASUS43 KFSD 230002
RWRFSD

WEATHER ROUNDUP FOR SE SOUTH DAKOTA/SW MINNESOTA/NW IOWA
NATIONAL WEATHER SERVICE SIOUX FALLS SD
700 PM CDT TUE MAY 22 2018

NOTE: "FAIR" INDICATES FEW OR NO CLOUDS BELOW 12,000 FEET WITH NO
SIGNIFICANT WEATHER AND OR OBSTRUCTIONS TO VISIBILITY.


SDZ038>040-050-052>070-230100-
SOUTHEAST SOUTH DAKOTA

CITY           SKY/WX    TMP DP  RH WIND       PRES   REMARKS
BROOKINGS      MOSUNNY   78  62  57 S8        29.95S
CHAMBERLAIN    MOSUNNY   81  67  61 SE12      29.89S
6HR MIN TEMP:  80; 6HR MAX TEMP:  84;

HURON          MOSUNNY   81  63  54 SE13      29.89F
6HR MIN TEMP:  80; 6HR MAX TEMP:  83;

MADISON        FAIR      75  66  73 S14       29.95S
MITCHELL       MOSUNNY   80  65  59 S13       29.90S
6HR MIN TEMP:  79; 6HR MAX TEMP:  83;

SIOUX FALLS    PTSUNNY   77  65  66 SE10      29.93F
6HR MIN TEMP:  76; 6HR MAX TEMP:  79;

WINNER         FAIR      80  65  59 SE14      29.89S
YANKTON        CLOUDY    78  68  71 E13G18    29.90F
$$

MNZ071-072-080-081-089-090-097-098-230100-
SOUTHWEST MINNESOTA

CITY           SKY/WX    TMP DP  RH WIND       PRES   REMARKS
FAIRMONT       MOSUNNY   78  60  53 S9        29.99F
JACKSON        CLOUDY    77  61  57 SE7       30.00S
LUVERNE        SUNNY     77  59  53 S12G17    29.96S
MARSHALL       MOSUNNY   79  59  50 SE13      29.96S
6HR MIN TEMP:  73; 6HR MAX TEMP:  81;

MONTEVIDEO     SUNNY     81  57  44 S10       29.97S
PIPESTONE      SUNNY     79  63  57 SE10G16   29.96S
REDWOOD FALLS  SUNNY     77  58  51 SE7       29.97F
TRACY          MOSUNNY   79  62  56 SE12G17   29.97S
WINDOM         SUNNY     79  54  41 SE8       29.98S
WORTHINGTON    PTSUNNY   78  62  57 SE12      29.98F
$$

IAZ001>003-012>014-020>022-031-032-NEZ013-014-SDZ071-230100-
NORTHWEST IOWA

CITY           SKY/WX    TMP DP  RH WIND       PRES   REMARKS
CHEROKEE       CLOUDY    77  62  60 SE9       29.96S
DENISON        CLOUDY    75  64  69 SE10G17   29.98S
ESTHERVILLE    CLOUDY    76  60  57 S10       29.98S
ORANGE CITY    MOSUNNY   79  64  61 SE7       29.96S
SHELDON        CLOUDY    77  64  65 S9        29.95S
SIOUX CITY     CLOUDY    78  66  66 SE12      29.92F
6HR MIN TEMP:  73; 6HR MAX TEMP:  79;

SPENCER        MOSUNNY   79  62  56 S10       29.97F
6HR MIN TEMP:  76; 6HR MAX TEMP:  81;

STORM LAKE     CLOUDY    77  61  57 SE12      29.98S
$$

ABBREVIATIONS USED IN REMARKS
   TC - TEMPERATURE IN CELSIUS
  WCI - WIND CHILL INDEX
   HX - HEAT INDEX
  VSB - VISIBILITY




USA.gov is the U.S. government's official web portal to all federal, state and local government web resources and services.